Location: Crescent
(42.8242°N, 73.7329°W)
Time: 13:58:49
(UTC+00:00)

Tiros 1 - Pass Details

Date: 25 February 2026
Orbit: 618 x 649 km, 48.4° (Epoch: 6 March)

Event Time Altitude Azimuth Distance (km) Brightness Sun altitude
Exits shadow 10:38:52 - 229° (SW) 2,251 9.5 -11.4°
Reaches altitude 10° 10:39:28 10° 228° (SW) 2,018 9.3 -11.3°
Maximum altitude 10:44:03 62° 148° (SSE) 714 7.5 -10.5°
Drops below altitude 10° 10:48:36 10° 68° (ENE) 2,006 10.8 -9.6°
Sets 10:50:56 0° 65° (ENE) 2,910 11.7 -9.2°
